sat.trackr.live / text

‹ back to catalog

QIANFAN-100

NORAD 66042 · 2025-233K

PAYLOAD ACTIVE UNKNOWN

§ Identity

Operator
Country
PRC
Launch date
2025-10-17
Launch site
TAISC
Launch vehicle
Mass (kg)
RCS (m²)

External: N2YO · Heavens-Above · Gunter

§ Orbital elements

Epoch: 2026-05-25T02:59:08.324160Z

Period
106.59 min
Inclination
89.0035°
Eccentricity
0.0002149
Mean motion
13.51009261 rev/d
Perigee alt
1,066.9 km
Apogee alt
1,070.1 km
Semi-major
7,446.7 km
B*
1.9359e-4
RAAN
45.4447°
Arg perigee
69.3094°
Mean anomaly
290.8287°
Rev number
3,012

§ Raw data

QIANFAN-1001 66042U 25233K   26145.12440190  .00000137  00000+0  19359-3 0  99922 66042  89.0035  45.4447 0002149  69.3094 290.8287 13.51009261 30120

JSON: /api/v1/satellites/66042 · /tle

For live sub-satellite position, see the globe view (requires WebGL).

§ Visibility from observer

Set your observer location to see the next 7 days of passes ≥ 10°. The values pass through the URL so the page stays shareable.

No JS? Fill the form by hand. The geolocation button needs JavaScript.